Cheyenne, WY

12:00 PM MDT on June 25, 2017 (GMT -0600)
Cheyenne

Weather History for KCYS - November, 2013

Change the Weather History Date:

Saturday, November 23, 2013

  Actual Average Record
Temperature  
Mean Temperature 20 °F 32 °F  
Max Temperature 29 °F 43 °F 63 °F (1917)
Min Temperature 10 °F 21 °F -9 °F (1918)
Degree Days  
Heating Degree Days 45 33  
Month to date heating degree days 649 649  
Since 1 July heating degree days 1507 1508  
Cooling Degree Days 0 0  
Month to date cooling degree days 0 0  
Year to date cooling degree days 520 348  
Moisture  
Dew Point 9 °F    
Average Humidity 65    
Maximum Humidity 80    
Minimum Humidity 50    
Precipitation  
Precipitation 0.00 in 0.02 in 0.57 in (1992)
Month to date precipitation 0.15 0.46  
Year to date precipitation 17.67 15.32  
Snow  
Snow 0.00 in 0.30 in 9.60 in (1992)
Month to date snowfall 3.1 5.9  
Since 1 July snowfall 15.6 12.2  
Snow Depth 1.00 in    
Sea Level Pressure  
Sea Level Pressure 30.60 in    
Wind  
Wind Speed 9 mph (SW)    
Max Wind Speed 14 mph    
Max Gust Speed 17 mph    
Visibility 10 miles    
Events      
T = Trace of Precipitation, MM = Missing Value Source: NWS Daily Summary

Daily Weather History Graph

Daily Weather History Graph

Search for Another Location

Airport or City:

Trip Planner

Search our weather history database for the weather conditions in past years. The results will help you decide how hot, cold, wet, or windy it might be!

Date:

Astronomy

Nov. 23, 2013 Rise Set
Actual Time 6:56 AM MST 4:34 PM MST
Civil Twilight 6:26 AM MST 5:04 PM MST
Nautical Twilight 5:52 AM MST 5:38 PM MST
Astronomical Twilight 5:19 AM MST 6:11 PM MST
Moon 10:06 PM MST (11/23) 11:13 AM MST (11/23)
Length of Visible Light 10h 37m
Length of Day
9h 37m
Waning Gibbous, 69% of the Moon is Illuminated
Nov 23
Waning Gibbous
Nov 25
Last Quarter
Dec 2
New
Dec 9
First Quarter
Dec 17
Full

Hourly Weather History & Observations

Time (MST) Temp. Windchill Dew Point Humidity Pressure Visibility Wind Dir Wind Speed Gust Speed Precip Events Conditions
12:53 AM 18.0 °F 7.7 °F 3.0 °F 52% 30.67 in 10.0 mi WNW 8.1 mph - N/A   Clear
1:53 AM 16.0 °F 10.4 °F 3.9 °F 59% 30.67 in 10.0 mi NW 3.5 mph - N/A   Clear
2:53 AM 16.0 °F 6.3 °F 3.9 °F 59% 30.68 in 10.0 mi West 6.9 mph - N/A   Clear
3:53 AM 17.1 °F 10.0 °F 3.0 °F 54% 30.69 in 10.0 mi West 4.6 mph - N/A   Clear
4:53 AM 12.9 °F 2.6 °F 3.0 °F 65% 30.74 in 10.0 mi West 6.9 mph - N/A   Clear
5:53 AM 10.0 °F -0.9 °F 1.9 °F 70% 30.77 in 10.0 mi West 6.9 mph - N/A   Clear
6:53 AM 12.9 °F 5.2 °F 3.9 °F 67% 30.77 in 10.0 mi West 4.6 mph - N/A   Partly Cloudy
7:53 AM 15.1 °F 6.4 °F 5.0 °F 64% 30.76 in 10.0 mi WSW 5.8 mph - N/A   Clear
8:53 AM 18.0 °F - 6.1 °F 60% 30.74 in 10.0 mi Calm Calm - N/A   Clear
9:53 AM 26.1 °F 14.5 °F 10.0 °F 51% 30.72 in 10.0 mi SSW 13.8 mph - N/A   Clear
10:53 AM 28.0 °F 17.5 °F 12.9 °F 53% 30.67 in 10.0 mi SSW 12.7 mph - N/A   Clear
11:53 AM 28.0 °F 18.1 °F 12.9 °F 53% 30.64 in 10.0 mi SSW 11.5 mph - N/A   Clear
12:53 PM 28.9 °F 16.9 °F 16.0 °F 58% 30.60 in 10.0 mi SSW 17.3 mph 24.2 mph N/A   Clear
4:53 PM 23.0 °F 13.1 °F 15.8 °F 74% 30.37 in 10.0 mi South 9.2 mph - N/A   Clear
5:53 PM 21.0 °F 10.6 °F 14.0 °F 74% 30.60 in 10.0 mi South 9.2 mph - N/A   Clear
6:53 PM 19.4 °F 7.9 °F 12.2 °F 74% 30.35 in 10.0 mi SSE 10.4 mph - N/A   Partly Cloudy
7:53 PM 21.2 °F 10.9 °F 12.2 °F 68% 30.34 in 10.0 mi South 9.2 mph - N/A   Clear
8:53 PM 19.9 °F 9.3 °F 12.9 °F 74% 30.52 in 10.0 mi South 9.2 mph - N/A   Clear
9:53 PM 19.0 °F 7.5 °F 12.9 °F 77% 30.46 in 10.0 mi South 10.4 mph - N/A   Scattered Clouds
10:53 PM 18.0 °F - 12.9 °F 81% 30.44 in 10.0 mi Calm Calm - N/A   Partly Cloudy
11:53 PM 17.1 °F 6.6 °F 14.0 °F 88% 30.41 in 8.0 mi South 8.1 mph - N/A   Clear